FREGAT DEB, 45651

Orbit data source: Space-Track

FREGAT DEB, 45651 is space debris in LEO originally from a launch on Mon, 18 Jul 2011 UTC launched from the Tyuratam Missile And Space Complex (TTMTR). Debris objects in space refer to the collection of defunct objects orbiting the Earth. Examples of debris include non-operational satellites, rocket bodies, and fragments generated from explosions, collisions, or faulty payload assembly.

Loading next visibility...
Identifier
45651, 2011-037AT
Orbit
LEO
Country
Flag of CISCIS
Related business
Manufacturer
Lavochkin
Mission
Spacecraft
Bus & Motor
Unknown
Mass
Unknown
Launch date (UTC)
2011-07-18 (15 years ago)
Launch vehicle
Unknown
Launch site
Tyuratam Missile And Space Complex (TTMTR)
Object type
Payload
Rocket body
Debris
Shape & HBR
Unknown shape, 0.2 m
Radar Cross Section
Medium (>0.1 m² and <1 m²)

Expand to show TLE details & history
Last TLE update: 2 days ago

TLE from 2 days ago
0 FREGAT DEB
1 45651U 11037AT  26171.45490955  .00037885  00000-0  34499-2 0  9993
2 45651  51.5638  75.6782 0989067  88.2434 283.1303 13.33269345 12411
Epoch: 2026-06-20T10:55Z
TLE epoch observation values (Epoch: 2026-06-20T10:55:04.185Z)
Latitude
-0.00004°
Longitude
3.24144°
Altitude
1,037.985 km
Speed
7.381 km/s
True Right ascension
05h 02m 42s
True Declination
0° 00' 00"
Sunlit
Object was in daylight at epoch
Visualization orbit readout
Latitude
Unknown
Longitude
Unknown
Altitude
Unknown
Speed
Unknown
Apparent Right ascension
Unknown
Apparent Declination
Unknown
Sunlit
N/A
Visualization observer readout
Local Sidereal Time
21:39:59
Azimuth
Unknown
Elevation
Unknown
Doppler factor
Unknown
Orbital elements
Apogee altitude
1,878.029 km
Perigee altitude
391.842 km
Semi-major axis
7,513.072 km
Eccentricity
0.09891
Inclination
51.5638°
RAAN
75.6782°
Arg. of periapsis
88.2434°
True anomaly
271.84777°
Mean anomaly
283.1303°
Eccentric anomaly
277.512°
Mean motion
3.33286 °/min
Orbital period
108.02 mins
BSTAR
0.0034499
Loading maneuver chart data...
Computing Atmospheric mass density...
Loading historical data...
Loading historical data...
Loading historical data...
Loading historical data...
Loading historical data...
Loading historical data...
Loading historical data...

Documentation

Showing up to 5 results
|